Location: Broadmoor
(37.6867°N, 122.4828°W)
Time: 16:58:02
(UTC+00:00)

Cosmos 2242 Rocket - Pass Details

Date: 03 August 2024
Orbit: 616 x 647 km, 82.5° (Epoch: 06 September)

Event Time Altitude Azimuth Distance (km) Brightness Sun altitude
Rises 12:05:15 0° 355° (N) 2,896 7.4 -13.1°
Reaches altitude 10° 12:07:29 10° 357° (N) 1,988 6.6 -12.7°
Maximum altitude 12:11:53 73° 82° (E) 650 3.8 -12.0°
Drops below altitude 10° 12:16:16 10° 168° (SSE) 1,988 6.0 -11.3°
Sets 12:18:30 0° 170° (S) 2,895 6.8 -10.9°
